Location: La Savane
(18.0962°N, 63.0646°W)
Time: 16:48:52
(UTC+00:00)

Cosmos 1315 Rocket - Pass Details

Date: 29 October 2020
Orbit: 530 x 567 km, 81.2° (Epoch: 28 November)

Event Time Altitude Azimuth Distance (km) Brightness Sun altitude
Rises 22:19:30 0° 185° (S) 2,660 6.5 -9.7°
Reaches altitude 10° 22:21:38 10° 185° (S) 1,775 5.6 -10.2°
Maximum altitude 22:25:32 89° 97° (E) 539 2.7 -11.1°
Drops below altitude 10° 22:29:30 10° 6° (N) 1,796 5.3 -12.1°
Sets 22:31:40 0° 7° (N) 2,695 6.2 -12.6°
